Farmington, MO

2:26 AM CDT on September 19, 2019 (GMT -0500)
Farmington Regional

Weather History for KFAM - August, 2019

Change the Weather History Date:

Thursday, August 22, 2019

  Actual Average Record
Temperature  
Mean Temperature 76 °F -  
Max Temperature 82 °F 84 °F 95 °F (2007)
Min Temperature 69 °F 63 °F 53 °F (1999)
Cooling Degree Days 10    
Growing Degree Days 26 (Base 50)    
Moisture  
Dew Point 71 °F    
Average Humidity 92    
Maximum Humidity 100    
Minimum Humidity 65    
Precipitation  
Precipitation 0.03 in - - ()
Sea Level Pressure  
Sea Level Pressure 30.01 in    
Wind  
Wind Speed 3 mph ()    
Max Wind Speed 8 mph    
Max Gust Speed -    
Visibility 9.2 miles    
Events Rain , Thunderstorm    
Averages and records for this station are not official NWS values.
T = Trace of Precipitation, MM = Missing Value Source: Averaged Metar Reports

Daily Weather History Graph

Daily Weather History Graph

Search for Another Location

Airport or City:

Astronomy

Aug. 22, 2019 Rise Set
Actual Time 6:23 AM CDT 7:45 PM CDT
Civil Twilight 5:55 AM CDT 8:12 PM CDT
Nautical Twilight 5:22 AM CDT 8:45 PM CDT
Astronomical Twilight 4:48 AM CDT 9:20 PM CDT
Moon 11:43 PM CDT (8/22) 12:51 PM CDT (8/22)
Length of Visible Light 14h 17m
Length of Day
13h 22m
Waning Gibbous, 59% of the Moon is Illuminated
Aug 22
Waning Gibbous
Aug 23
Last Quarter
Aug 30
New
Sep 5
First Quarter
Sep 13
Full

Hourly Weather History & Observations

Time (CDT) Temp. Heat Index Dew Point Humidity Pressure Visibility Wind Dir Wind Speed Gust Speed Precip Events Conditions
12:56 AM 71.1 °F - 70.0 °F 96% 30.05 in 10.0 mi West 4.6 mph - 0.00 in Rain Light Rain
1:56 AM 70.0 °F - 69.1 °F 97% 30.01 in 10.0 mi WNW 4.6 mph - 0.00 in   Overcast
2:56 AM 70.0 °F - 70.0 °F 100% 30.00 in 10.0 mi Calm Calm - 0.01 in   Clear
3:56 AM 71.1 °F - 69.1 °F 93% 30.01 in 10.0 mi Variable 3.5 mph - N/A   Scattered Clouds
4:56 AM 71.1 °F - 69.1 °F 93% 30.00 in 10.0 mi ESE 4.6 mph - N/A   Scattered Clouds
5:56 AM 70.0 °F - 69.1 °F 97% 30.01 in 10.0 mi East 4.6 mph - 0.00 in   Clear
6:53 AM 69.8 °F - 69.8 °F 100% 30.00 in 10.0 mi ESE 8.1 mph - 0.01 in Rain Light Rain
6:56 AM 70.0 °F - 69.1 °F 97% 30.01 in 10.0 mi ESE 6.9 mph - 0.01 in Rain Light Rain
7:07 AM 69.8 °F - 69.8 °F 100% 30.01 in 10.0 mi SE 6.9 mph - 0.00 in   Mostly Cloudy
7:56 AM 72.0 °F - 70.0 °F 93% 30.03 in 10.0 mi Calm Calm - 0.00 in   Mostly Cloudy
8:42 AM 71.6 °F - 69.8 °F 94% 30.04 in 10.0 mi Calm Calm - N/A Thunderstorm Overcast
8:56 AM 72.0 °F - 70.0 °F 93% 30.06 in 10.0 mi Calm Calm - N/A Thunderstorm Overcast
9:04 AM 71.6 °F - 69.8 °F 94% 30.05 in 10.0 mi WNW 4.6 mph - N/A   Overcast
9:37 AM 71.6 °F - 69.8 °F 94% 30.06 in 10.0 mi West 3.5 mph - N/A   Overcast
9:43 AM 71.6 °F - 69.8 °F 94% 30.06 in 9.0 mi West 3.5 mph - 0.00 in Rain , Thunderstorm Light Rain
9:56 AM 71.1 °F - 70.0 °F 96% 30.06 in 10.0 mi Calm Calm - 0.00 in Rain , Thunderstorm Light Rain
10:00 AM 71.6 °F - 69.8 °F 94% 30.05 in 10.0 mi Calm Calm - 0.00 in Rain Light Rain
10:40 AM 71.6 °F - 71.6 °F 100% 30.05 in 6.0 mi East 3.5 mph - N/A Rain Rain
10:56 AM 71.1 °F - 70.0 °F 96% 30.06 in 6.0 mi ESE 5.8 mph - N/A Rain Rain
11:18 AM 71.6 °F - 71.6 °F 100% 30.05 in 6.0 mi East 5.8 mph - N/A Rain Rain
11:34 AM 71.6 °F - 71.6 °F 100% 30.05 in 7.0 mi SE 4.6 mph - N/A Rain Light Rain
11:44 AM 71.6 °F - 71.6 °F 100% 30.05 in 9.0 mi SE 4.6 mph - N/A Rain Light Rain
11:56 AM 72.0 °F - 71.1 °F 97% 30.06 in 10.0 mi SSE 3.5 mph - N/A Rain Light Rain
12:27 PM 73.4 °F - 71.6 °F 94% 30.03 in 10.0 mi Calm Calm - N/A   Mostly Cloudy
12:49 PM 73.4 °F - 69.8 °F 88% 30.01 in 10.0 mi Calm Calm - N/A   Overcast
12:56 PM 75.0 °F - 72.0 °F 90% 30.01 in 10.0 mi Calm Calm - N/A   Overcast
1:24 PM 77.0 °F - 71.6 °F 83% 30.00 in 9.0 mi Calm Calm - N/A   Mostly Cloudy
2:56 PM 79.0 °F - 70.0 °F 74% 29.99 in 10.0 mi Calm Calm - N/A   Mostly Cloudy
3:13 PM 80.6 °F 84.6 °F 71.6 °F 74% 29.98 in 10.0 mi Variable 3.5 mph - N/A   Mostly Cloudy
3:56 PM 82.0 °F 85.9 °F 70.0 °F 67% 29.99 in 10.0 mi NNE 3.5 mph - N/A   Overcast
4:56 PM 82.9 °F 87.0 °F 70.0 °F 65% 29.98 in 10.0 mi Variable 4.6 mph - N/A   Mostly Cloudy
5:56 PM 80.1 °F 83.6 °F 71.1 °F 74% 29.97 in 10.0 mi East 4.6 mph - 0.01 in   Mostly Cloudy
6:05 PM 80.6 °F 84.6 °F 71.6 °F 74% 29.96 in 10.0 mi East 4.6 mph - N/A   Overcast
6:44 PM 80.6 °F 84.6 °F 71.6 °F 74% 29.96 in 10.0 mi East 5.8 mph - N/A   Mostly Cloudy
6:56 PM 79.0 °F - 72.0 °F 79% 29.96 in 10.0 mi ESE 6.9 mph - N/A   Mostly Cloudy
7:33 PM 77.0 °F - 73.4 °F 89% 29.98 in 10.0 mi ESE 4.6 mph - N/A   Overcast
7:42 PM 75.2 °F - 73.4 °F 94% 29.98 in 10.0 mi SE 3.5 mph - N/A   Overcast
7:56 PM 75.9 °F - 72.0 °F 87% 29.99 in 10.0 mi ESE 4.6 mph - N/A   Overcast
8:17 PM 73.4 °F - 73.4 °F 100% 29.99 in 2.5 mi WSW 4.6 mph - N/A Rain Heavy Rain
8:24 PM 73.4 °F - 71.6 °F 94% 29.99 in 2.5 mi WSW 3.5 mph - N/A Rain Heavy Rain
8:32 PM 73.4 °F - 71.6 °F 94% 30.00 in 4.0 mi South 4.6 mph - N/A Rain Rain
8:46 PM 73.4 °F - 71.6 °F 94% 30.00 in 9.0 mi Calm Calm - N/A Rain Rain
8:56 PM 73.0 °F - 72.0 °F 96% 30.01 in 10.0 mi Calm Calm - N/A Rain Light Rain
9:05 PM 73.4 °F - 71.6 °F 94% 30.00 in 10.0 mi East 3.5 mph - N/A Rain Light Rain
9:13 PM 73.4 °F - 71.6 °F 94% 30.00 in 10.0 mi East 3.5 mph - N/A Rain Light Rain
9:22 PM 71.6 °F - 71.6 °F 100% 30.00 in 10.0 mi Calm Calm - N/A   Overcast
9:56 PM 72.0 °F - 71.1 °F 97% 30.01 in 10.0 mi South 3.5 mph - N/A   Scattered Clouds
10:56 PM 71.1 °F - 71.1 °F 100% 30.04 in 9.0 mi Calm Calm - N/A   Clear
11:56 PM 71.1 °F - 71.1 °F 100% 30.03 in 10.0 mi North 3.5 mph - N/A   Scattered Clouds